Weather in Orléans

France     47˚53′52″N   1˚53′40″E
temp.,
°C
wind,
m/s
gust,
m/s
humid.,
%
clouds,
%
prec.,
mm/h
press.,
hPa
HPBL,
m
29 november, sun
sun2901:00+5˚ne496716 0.0 1018260
04:00+3˚ne48740 0.0 1019243
07:00+3˚ne410780 0.0 1020284
10:00+4˚ne59730 0.0 1022349
13:00+7˚ne47600 0.0 1022421
16:00+8˚ne47540 0.0 1022433
19:00+4˚ne39680 0.0 1024264
22:00+3˚ne36740 0.0 1025187
30 november, mon
mon3001:00+1˚ne34730 0.0 1026130
04:00nne24740 0.0 1026102
07:00ne22760 0.0 102758
10:00+2˚ne12650 0.0 1028136
13:00+6˚n11490 0.0 1028311
16:00+6˚w125733 0.0 102786
19:00+5˚wsw236664 0.0 102655
22:00+6˚wsw3674100 0.0 1026182
1 december, tue
tue101:00+6˚wsw3793100 0.6 1024284
04:00+8˚w41096100 0.4 1022508
07:00+8˚w51194100 0.9 1020543
10:00+9˚nnw6108374 0.3 1020930
13:00+9˚nnw696052 0.4 10201148
16:00+8˚nnw596784 0.1 10191063
19:00+7˚nnw6117192 0.2 1020903
22:00+7˚nnw6128093 0.0 1019745
2 december, wed
wed201:00+6˚nnw6128392 0.2 1019653
04:00+7˚n5118198 0.3 1018683
07:00+6˚n4108786 0.3 1018489
10:00+6˚ne4786100 0.1 1019587
13:00+8˚ne356871 0.2 1018837
16:00+7˚n347589 0.0 1017524
19:00+5˚n128787 0.0 101877
22:00+5˚nw118388 0.0 101773
3 december, thu
thu301:00+5˚nw118093 0.0 101654
04:00+3˚wnw118787 0.0 101433
07:00+3˚sw228860 0.0 101238
10:00+4˚ssw238384 0.0 1010183
13:00+6˚s367491 0.0 1006478
16:00+6˚s4778100 0.0 1003692
19:00+5˚sse41081100 0.0 999654
22:00+5˚sse61279100 0.1 995650